Time,TemperatureF,DewpointF,PressureIn,WindDirection,WindDirectionDegrees,WindSpeedMPH,WindSpeedGustMPH,Humidity,HourlyPrecipIn,Conditions,Clouds,dailyrainin,SoftwareType,DateUTC
2013-03-24 00:00:00,44.8,9.2,29.63,South,188,5.0,5.0,23,0.00,,,0.00,Wunderground v.1.15,2013-03-24 07:00:00,
2013-03-24 00:10:00,44.7,8.1,29.63,SSW,194,4.0,4.0,22,0.00,,,0.00,Wunderground v.1.15,2013-03-24 07:10:00,
2013-03-24 00:20:00,42.7,8.4,29.63,South,184,3.0,3.0,24,0.00,,,0.00,Wunderground v.1.15,2013-03-24 07:20:00,
2013-03-24 00:25:00,43.6,9.1,29.63,South,188,4.0,5.0,24,0.00,,,0.00,Wunderground v.1.15,2013-03-24 07:25:00,
2013-03-24 00:30:00,44.3,8.8,29.63,South,172,4.0,4.0,23,0.00,,,0.00,Wunderground v.1.15,2013-03-24 07:30:00,
2013-03-24 00:35:00,45.2,8.5,29.63,South,186,4.0,4.0,22,0.00,,,0.00,Wunderground v.1.15,2013-03-24 07:35:00,
2013-03-24 00:40:00,45.0,9.4,29.63,South,182,3.0,5.0,23,0.00,,,0.00,Wunderground v.1.15,2013-03-24 07:40:00,
2013-03-24 00:45:00,44.9,8.3,29.63,South,185,3.0,5.0,22,0.00,,,0.00,Wunderground v.1.15,2013-03-24 07:45:00,
2013-03-24 00:50:00,44.4,8.9,29.63,South,184,3.0,3.0,23,0.00,,,0.00,Wunderground v.1.15,2013-03-24 07:50:00,
2013-03-24 00:55:00,42.4,8.1,29.63,SSW,210,2.0,3.0,24,0.00,,,0.00,Wunderground v.1.15,2013-03-24 07:55:00,
2013-03-24 01:00:00,41.0,9.5,29.63,SSW,209,1.0,1.0,27,0.00,,,0.00,Wunderground v.1.15,2013-03-24 08:00:00,
2013-03-24 01:10:00,42.4,12.3,29.63,SSW,209,1.0,4.0,29,0.00,,,0.00,Wunderground v.1.15,2013-03-24 08:10:00,
2013-03-24 01:15:00,42.0,11.2,29.63,SSW,209,1.0,4.0,28,0.00,,,0.00,Wunderground v.1.15,2013-03-24 08:15:00,
2013-03-24 01:25:00,41.7,10.1,29.63,SSW,208,1.0,2.0,27,0.00,,,0.00,Wunderground v.1.15,2013-03-24 08:25:00,
2013-03-24 01:30:00,42.1,9.6,29.63,SSW,208,0.0,0.0,26,0.00,,,0.00,Wunderground v.1.15,2013-03-24 08:30:00,
2013-03-24 01:35:00,42.6,11.7,29.63,SSW,208,0.0,0.0,28,0.00,,,0.00,Wunderground v.1.15,2013-03-24 08:35:00,
2013-03-24 01:40:00,42.0,10.4,29.63,SSW,208,0.0,0.0,27,0.00,,,0.00,Wunderground v.1.15,2013-03-24 08:40:00,
2013-03-24 01:45:00,41.9,9.5,29.63,SSW,208,0.0,0.0,26,0.00,,,0.00,Wunderground v.1.15,2013-03-24 08:45:00,
2013-03-24 01:50:00,42.4,9.9,29.63,SSW,208,0.0,0.0,26,0.00,,,0.00,Wunderground v.1.15,2013-03-24 08:50:00,
2013-03-24 01:55:00,42.6,10.1,29.63,SSW,208,0.0,0.0,26,0.00,,,0.00,Wunderground v.1.15,2013-03-24 08:55:00,
2013-03-24 02:00:00,42.2,9.7,29.63,SSW,208,0.0,0.0,26,0.00,,,0.00,Wunderground v.1.15,2013-03-24 09:00:00,
2013-03-24 02:10:00,41.3,9.8,29.63,SSW,207,0.0,0.0,27,0.00,,,0.00,Wunderground v.1.15,2013-03-24 09:10:00,
2013-03-24 02:20:00,40.7,9.3,29.63,SSW,207,0.0,0.0,27,0.00,,,0.00,Wunderground v.1.15,2013-03-24 09:20:00,
2013-03-24 02:25:00,39.7,9.2,29.63,South,187,1.0,2.0,28,0.00,,,0.00,Wunderground v.1.15,2013-03-24 09:25:00,
2013-03-24 02:30:00,39.2,8.8,29.63,South,180,1.0,1.0,28,0.00,,,0.00,Wunderground v.1.15,2013-03-24 09:30:00,
2013-03-24 02:35:00,39.3,8.9,29.63,South,186,1.0,3.0,28,0.00,,,0.00,Wunderground v.1.15,2013-03-24 09:35:00,
2013-03-24 02:40:00,40.0,8.7,29.63,ENE,59,1.0,4.0,27,0.00,,,0.00,Wunderground v.1.15,2013-03-24 09:40:00,
2013-03-24 02:45:00,42.4,9.0,29.63,SSW,192,2.0,4.0,25,0.00,,,0.00,Wunderground v.1.15,2013-03-24 09:45:00,
2013-03-24 02:50:00,42.3,8.9,29.63,SSW,192,1.0,1.0,25,0.00,,,0.00,Wunderground v.1.15,2013-03-24 09:50:00,
2013-03-24 02:55:00,42.4,9.0,29.63,SSW,192,0.0,1.0,25,0.00,,,0.00,Wunderground v.1.15,2013-03-24 09:55:00,
2013-03-24 03:00:00,40.7,8.4,29.63,South,178,1.0,1.0,26,0.00,,,0.00,Wunderground v.1.15,2013-03-24 10:00:00,
2013-03-24 03:10:00,40.1,8.7,29.63,SSW,204,0.0,0.0,27,0.00,,,0.00,Wunderground v.1.15,2013-03-24 10:10:00,
2013-03-24 03:15:00,41.5,9.1,29.63,SSW,192,0.0,2.0,26,0.00,,,0.00,Wunderground v.1.15,2013-03-24 10:15:00,
2013-03-24 03:20:00,41.5,9.1,29.63,South,189,0.0,0.0,26,0.00,,,0.00,Wunderground v.1.15,2013-03-24 10:20:00,
2013-03-24 03:25:00,41.4,9.0,29.63,SSE,161,0.0,0.0,26,0.00,,,0.00,Wunderground v.1.15,2013-03-24 10:25:00,
2013-03-24 03:30:00,41.4,9.0,29.63,SSE,159,0.0,0.0,26,0.00,,,0.00,Wunderground v.1.15,2013-03-24 10:30:00,
2013-03-24 03:35:00,40.7,9.3,29.63,SSE,159,0.0,0.0,27,0.00,,,0.00,Wunderground v.1.15,2013-03-24 10:35:00,
2013-03-24 03:40:00,40.5,9.1,29.63,SSE,161,0.0,0.0,27,0.00,,,0.00,Wunderground v.1.15,2013-03-24 10:40:00,
2013-03-24 03:50:00,39.3,9.6,29.63,South,184,2.0,2.0,29,0.00,,,0.00,Wunderground v.1.15,2013-03-24 10:50:00,
2013-03-24 03:55:00,38.9,9.3,29.63,South,184,1.0,2.0,29,0.00,,,0.00,Wunderground v.1.15,2013-03-24 10:55:00,
2013-03-24 04:00:00,39.3,9.6,29.63,SSE,159,1.0,1.0,29,0.00,,,0.00,Wunderground v.1.15,2013-03-24 11:00:00,
2013-03-24 04:10:00,41.8,9.4,29.63,SE,146,1.0,1.0,26,0.00,,,0.00,Wunderground v.1.15,2013-03-24 11:10:00,
2013-03-24 04:20:00,40.1,8.7,29.63,SSE,165,0.0,0.0,27,0.00,,,0.00,Wunderground v.1.15,2013-03-24 11:20:00,
2013-03-24 04:25:00,39.9,8.6,29.63,SSE,165,0.0,0.0,27,0.00,,,0.00,Wunderground v.1.15,2013-03-24 11:25:00,
2013-03-24 04:35:00,42.1,8.7,29.63,ESE,107,1.0,2.0,25,0.00,,,0.00,Wunderground v.1.15,2013-03-24 11:35:00,
2013-03-24 04:40:00,41.6,9.2,29.63,ESE,107,0.0,0.0,26,0.00,,,0.00,Wunderground v.1.15,2013-03-24 11:40:00,
2013-03-24 04:45:00,38.0,8.5,29.63,ESE,112,0.0,0.0,29,0.00,,,0.00,Wunderground v.1.15,2013-03-24 11:45:00,
2013-03-24 04:50:00,36.7,8.9,29.63,South,188,1.0,1.0,31,0.00,,,0.00,Wunderground v.1.15,2013-03-24 11:50:00,
2013-03-24 04:55:00,35.8,9.5,29.63,South,188,1.0,1.0,33,0.00,,,0.00,Wunderground v.1.15,2013-03-24 11:55:00,
2013-03-24 05:00:00,35.0,8.7,29.63,South,188,0.0,0.0,33,0.00,,,0.00,Wunderground v.1.15,2013-03-24 12:00:00,
2013-03-24 05:10:00,36.7,8.9,29.63,West,277,0.0,0.0,31,0.00,,,0.00,Wunderground v.1.15,2013-03-24 12:10:00,
2013-03-24 05:15:00,38.0,8.5,29.63,West,277,0.0,0.0,29,0.00,,,0.00,Wunderground v.1.15,2013-03-24 12:15:00,
2013-03-24 05:20:00,39.3,8.9,29.63,West,277,0.0,0.0,28,0.00,,,0.00,Wunderground v.1.15,2013-03-24 12:20:00,
2013-03-24 05:25:00,40.1,7.9,29.63,West,277,0.0,0.0,26,0.00,,,0.00,Wunderground v.1.15,2013-03-24 12:25:00,
2013-03-24 05:35:00,41.7,8.4,29.63,West,277,0.0,0.0,25,0.00,,,0.00,Wunderground v.1.15,2013-03-24 12:35:00,
2013-03-24 05:40:00,40.4,8.2,29.63,West,277,0.0,0.0,26,0.00,,,0.00,Wunderground v.1.15,2013-03-24 12:40:00,
2013-03-24 05:45:00,40.1,8.7,29.63,West,275,0.0,1.0,27,0.00,,,0.00,Wunderground v.1.15,2013-03-24 12:45:00,
2013-03-24 05:50:00,38.4,8.1,29.63,SW,222,1.0,3.0,28,0.00,,,0.00,Wunderground v.1.15,2013-03-24 12:50:00,
2013-03-24 05:55:00,36.9,8.3,29.63,SSW,209,2.0,3.0,30,0.00,,,0.00,Wunderground v.1.15,2013-03-24 12:55:00,
2013-03-24 06:00:00,35.1,8.2,29.63,SSW,209,3.0,5.0,32,0.00,,,0.00,Wunderground v.1.15,2013-03-24 13:00:00,
2013-03-24 06:10:00,34.1,8.6,29.63,SSW,209,4.0,4.0,34,0.00,,,0.00,Wunderground v.1.15,2013-03-24 13:10:00,
2013-03-24 06:15:00,33.9,8.4,29.63,SSW,209,3.0,4.0,34,0.00,,,0.00,Wunderground v.1.15,2013-03-24 13:15:00,
2013-03-24 06:20:00,34.2,8.7,29.63,SSW,209,1.0,1.0,34,0.00,,,0.00,Wunderground v.1.15,2013-03-24 13:20:00,
2013-03-24 06:25:00,33.9,8.4,29.63,SSW,203,0.0,-999.0,34,0.00,,,0.00,Wunderground v.1.15,2013-03-24 13:25:00,
2013-03-24 06:30:00,33.8,8.4,29.63,SSW,209,0.0,0.0,34,0.00,,,0.00,Wunderground v.1.15,2013-03-24 13:30:00,
2013-03-24 06:35:00,33.5,8.7,29.63,SSW,209,1.0,4.0,35,0.00,,,0.00,Wunderground v.1.15,2013-03-24 13:35:00,
2013-03-24 06:40:00,33.9,9.1,29.63,SSW,208,2.0,5.0,35,0.00,,,0.00,Wunderground v.1.15,2013-03-24 13:40:00,
2013-03-24 06:45:00,34.7,9.8,29.63,South,188,4.0,5.0,35,0.00,,,0.00,Wunderground v.1.15,2013-03-24 13:45:00,
2013-03-24 06:50:00,35.5,9.9,29.63,South,180,5.0,-999.0,34,0.00,,,0.00,Wunderground v.1.15,2013-03-24 13:50:00,
2013-03-24 06:55:00,36.6,9.5,29.63,South,180,4.0,-999.0,32,0.00,,,0.00,Wunderground v.1.15,2013-03-24 13:55:00,
2013-03-24 07:00:00,37.8,9.8,29.63,South,180,4.0,-999.0,31,0.00,,,0.00,Wunderground v.1.15,2013-03-24 14:00:00,
2013-03-24 07:05:00,38.9,10.8,29.63,South,180,2.0,-999.0,31,0.00,,,0.00,Wunderground v.1.15,2013-03-24 14:05:00,
2013-03-24 07:10:00,40.0,11.0,29.63,South,180,1.0,-999.0,30,0.00,,,0.00,Wunderground v.1.15,2013-03-24 14:10:00,
2013-03-24 07:15:00,41.3,11.4,29.63,South,180,0.0,-999.0,29,0.00,,,0.00,Wunderground v.1.15,2013-03-24 14:15:00,
2013-03-24 07:20:00,42.9,11.2,29.63,South,180,0.0,-999.0,27,0.00,,,0.00,Wunderground v.1.15,2013-03-24 14:20:00,
2013-03-24 07:25:00,44.6,10.9,29.63,South,180,0.0,-999.0,25,0.00,,,0.00,Wunderground v.1.15,2013-03-24 14:25:00,
2013-03-24 07:30:00,46.2,10.4,29.63,South,180,0.0,-999.0,23,0.00,,,0.00,Wunderground v.1.15,2013-03-24 14:30:00,
2013-03-24 07:35:00,47.7,9.6,29.63,South,180,0.0,-999.0,21,0.00,,,0.00,Wunderground v.1.15,2013-03-24 14:35:00,
2013-03-24 07:40:00,49.2,9.8,29.63,N/A,-737280,0.0,-999.0,20,0.00,,,0.00,Wunderground v.1.15,2013-03-24 14:40:00,
2013-03-24 07:45:00,50.5,9.7,29.63,N/A,-737280,0.0,-999.0,19,0.00,,,0.00,Wunderground v.1.15,2013-03-24 14:45:00,
2013-03-24 07:50:00,51.5,9.3,29.63,N/A,-737280,0.0,-999.0,18,0.00,,,0.00,Wunderground v.1.15,2013-03-24 14:50:00,
2013-03-24 07:55:00,52.7,9.0,29.63,South,180,0.0,-999.0,17,0.00,,,0.00,Wunderground v.1.15,2013-03-24 14:55:00,
2013-03-24 08:00:00,53.6,8.4,29.63,South,180,1.0,-999.0,16,0.00,,,0.00,Wunderground v.1.15,2013-03-24 15:00:00,
2013-03-24 08:05:00,54.2,7.5,29.63,SE,135,1.0,-999.0,15,0.00,,,0.00,Wunderground v.1.15,2013-03-24 15:05:00,
2013-03-24 08:10:00,54.6,7.8,29.63,SE,135,1.0,-999.0,15,0.00,,,0.00,Wunderground v.1.15,2013-03-24 15:10:00,
2013-03-24 08:15:00,55.3,8.4,29.63,SSE,158,0.0,-999.0,15,0.00,,,0.00,Wunderground v.1.15,2013-03-24 15:15:00,
2013-03-24 08:20:00,55.9,8.8,29.63,SE,135,1.0,-999.0,15,0.00,,,0.00,Wunderground v.1.15,2013-03-24 15:20:00,
2013-03-24 08:25:00,56.6,7.9,29.63,SE,135,1.0,-999.0,14,0.00,,,0.00,Wunderground v.1.15,2013-03-24 15:25:00,
2013-03-24 08:30:00,56.8,6.4,29.63,ESE,113,1.0,-999.0,13,0.00,,,0.00,Wunderground v.1.15,2013-03-24 15:30:00,
2013-03-24 08:35:00,56.4,23.7,29.63,NNW,338,2.0,-999.0,28,0.00,,,0.00,Wunderground v.1.15,2013-03-24 15:35:00,
2013-03-24 08:40:00,53.9,20.6,29.63,NNW,338,5.0,-999.0,27,0.00,,,0.00,Wunderground v.1.15,2013-03-24 15:40:00,
2013-03-24 08:45:00,53.0,19.9,29.63,North,0,3.0,-999.0,27,0.00,,,0.00,Wunderground v.1.15,2013-03-24 15:45:00,
2013-03-24 08:50:00,53.2,20.0,29.63,NNE,23,3.0,-999.0,27,0.00,,,0.00,Wunderground v.1.15,2013-03-24 15:50:00,
2013-03-24 08:55:00,53.6,17.6,29.63,NNE,23,2.0,-999.0,24,0.00,,,0.00,Wunderground v.1.15,2013-03-24 15:55:00,
2013-03-24 09:00:00,54.0,16.0,29.63,North,0,2.0,-999.0,22,0.00,,,0.00,Wunderground v.1.15,2013-03-24 16:00:00,
2013-03-24 09:05:00,54.9,18.7,29.63,North,0,3.0,-999.0,24,0.00,,,0.00,Wunderground v.1.15,2013-03-24 16:05:00,
2013-03-24 09:10:00,55.4,18.2,29.63,North,0,2.0,-999.0,23,0.00,,,0.00,Wunderground v.1.15,2013-03-24 16:10:00,
2013-03-24 09:15:00,55.8,18.5,29.63,North,0,3.0,-999.0,23,0.00,,,0.00,Wunderground v.1.15,2013-03-24 16:15:00,
2013-03-24 09:20:00,56.4,15.8,29.63,NNE,23,2.0,-999.0,20,0.00,,,0.00,Wunderground v.1.15,2013-03-24 16:20:00,
2013-03-24 09:25:00,56.9,16.2,29.63,North,0,1.0,-999.0,20,0.00,,,0.00,Wunderground v.1.15,2013-03-24 16:25:00,
2013-03-24 09:30:00,57.6,10.2,29.63,NNE,23,0.0,-999.0,15,0.00,,,0.00,Wunderground v.1.15,2013-03-24 16:30:00,
2013-03-24 09:35:00,58.2,12.1,29.63,North,0,1.0,-999.0,16,0.00,,,0.00,Wunderground v.1.15,2013-03-24 16:35:00,
2013-03-24 09:40:00,58.7,9.5,29.63,North,0,2.0,-999.0,14,0.00,,,0.00,Wunderground v.1.15,2013-03-24 16:40:00,
2013-03-24 09:45:00,58.7,7.9,29.63,North,0,1.0,-999.0,13,0.00,,,0.00,Wunderground v.1.15,2013-03-24 16:45:00,
2013-03-24 09:50:00,59.1,9.9,29.63,North,0,0.0,-999.0,14,0.00,,,0.00,Wunderground v.1.15,2013-03-24 16:50:00,
2013-03-24 09:55:00,59.3,6.6,29.63,North,0,1.0,-999.0,12,0.00,,,0.00,Wunderground v.1.15,2013-03-24 16:55:00,
2013-03-24 10:00:00,59.5,11.7,29.63,NNW,338,1.0,-999.0,15,0.00,,,0.00,Wunderground v.1.15,2013-03-24 17:00:00,
2013-03-24 10:05:00,59.6,10.3,29.63,NNW,338,2.0,-999.0,14,0.00,,,0.00,Wunderground v.1.15,2013-03-24 17:05:00,
2013-03-24 10:10:00,59.8,8.8,29.63,NW,315,1.0,-999.0,13,0.00,,,0.00,Wunderground v.1.15,2013-03-24 17:10:00,
2013-03-24 10:15:00,60.0,12.1,29.63,NW,315,1.0,-999.0,15,0.00,,,0.00,Wunderground v.1.15,2013-03-24 17:15:00,
2013-03-24 10:20:00,60.2,9.1,29.63,NNW,338,2.0,-999.0,13,0.00,,,0.00,Wunderground v.1.15,2013-03-24 17:20:00,
2013-03-24 10:25:00,60.3,9.2,29.63,NNW,338,1.0,-999.0,13,0.00,,,0.00,Wunderground v.1.15,2013-03-24 17:25:00,
2013-03-24 10:30:00,60.9,7.9,29.63,NNW,338,3.0,-999.0,12,0.00,,,0.00,Wunderground v.1.15,2013-03-24 17:30:00,
2013-03-24 10:35:00,61.0,6.0,29.63,NNW,338,4.0,-999.0,11,0.00,,,0.00,Wunderground v.1.15,2013-03-24 17:35:00,
2013-03-24 10:40:00,61.2,8.1,29.63,NNW,338,3.0,-999.0,12,0.00,,,0.00,Wunderground v.1.15,2013-03-24 17:40:00,
2013-03-24 10:45:00,61.4,4.2,29.63,North,0,2.0,-999.0,10,0.00,,,0.00,Wunderground v.1.15,2013-03-24 17:45:00,
2013-03-24 10:50:00,61.6,6.5,29.63,NNW,338,3.0,-999.0,11,0.00,,,0.00,Wunderground v.1.15,2013-03-24 17:50:00,
2013-03-24 10:55:00,62.2,12.3,29.63,NNW,338,1.0,-999.0,14,0.00,,,0.00,Wunderground v.1.15,2013-03-24 17:55:00,
2013-03-24 11:00:00,62.3,9.0,29.63,North,0,3.0,-999.0,12,0.00,,,0.00,Wunderground v.1.15,2013-03-24 18:00:00,
2013-03-24 11:05:00,63.0,11.3,29.63,NNW,338,1.0,-999.0,13,0.00,,,0.00,Wunderground v.1.15,2013-03-24 18:05:00,
2013-03-24 11:10:00,63.0,3.2,29.63,North,0,1.0,-999.0,9,0.00,,,0.00,Wunderground v.1.15,2013-03-24 18:10:00,
2013-03-24 11:15:00,63.1,5.6,29.63,North,0,1.0,-999.0,10,0.00,,,0.00,Wunderground v.1.15,2013-03-24 18:15:00,
2013-03-24 11:20:00,63.3,3.4,29.63,North,0,1.0,-999.0,9,0.00,,,0.00,Wunderground v.1.15,2013-03-24 18:20:00,
2013-03-24 11:25:00,63.7,3.7,29.63,NE,45,1.0,-999.0,9,0.00,,,0.00,Wunderground v.1.15,2013-03-24 18:25:00,
2013-03-24 11:30:00,63.9,3.9,29.63,ENE,68,1.0,-999.0,9,0.00,,,0.00,Wunderground v.1.15,2013-03-24 18:30:00,
2013-03-24 11:35:00,64.3,6.5,29.63,NNW,338,1.0,-999.0,10,0.00,,,0.00,Wunderground v.1.15,2013-03-24 18:35:00,
2013-03-24 11:40:00,64.6,12.6,29.63,NW,315,2.0,-999.0,13,0.00,,,0.00,Wunderground v.1.15,2013-03-24 18:40:00,
2013-03-24 11:45:00,64.8,2.0,29.63,NW,315,5.0,-999.0,8,0.00,,,0.00,Wunderground v.1.15,2013-03-24 18:45:00,
2013-03-24 11:50:00,65.0,9.1,29.63,NW,315,4.0,-999.0,11,0.00,,,0.00,Wunderground v.1.15,2013-03-24 18:50:00,
2013-03-24 11:55:00,64.6,1.8,29.63,NW,315,2.0,-999.0,8,0.00,,,0.00,Wunderground v.1.15,2013-03-24 18:55:00,
2013-03-24 12:00:00,64.7,1.9,29.63,SW,225,0.0,-999.0,8,0.00,,,0.00,Wunderground v.1.15,2013-03-24 19:00:00,
2013-03-24 12:05:00,65.4,2.4,29.63,SE,135,1.0,-999.0,8,0.00,,,0.00,Wunderground v.1.15,2013-03-24 19:05:00,
2013-03-24 12:10:00,65.6,2.6,29.63,NE,45,1.0,-999.0,8,0.00,,,0.00,Wunderground v.1.15,2013-03-24 19:10:00,
2013-03-24 12:15:00,66.2,5.6,29.63,NE,45,1.0,-999.0,9,0.00,,,0.00,Wunderground v.1.15,2013-03-24 19:15:00,
2013-03-24 12:20:00,66.3,0.2,29.63,WSW,248,10.0,-999.0,7,0.00,,,0.00,Wunderground v.1.15,2013-03-24 19:20:00,
2013-03-24 12:25:00,65.9,-0.1,29.63,West,270,2.0,-999.0,7,0.00,,,0.00,Wunderground v.1.15,2013-03-24 19:25:00,
2013-03-24 12:30:00,66.6,0.5,29.63,WSW,248,10.0,-999.0,7,0.00,,,0.00,Wunderground v.1.15,2013-03-24 19:30:00,
2013-03-24 12:35:00,66.7,3.4,29.63,West,270,10.0,-999.0,8,0.00,,,0.00,Wunderground v.1.15,2013-03-24 19:35:00,
2013-03-24 12:40:00,66.7,3.4,29.63,West,270,10.0,-999.0,8,0.00,,,0.00,Wunderground v.1.15,2013-03-24 19:40:00,
2013-03-24 12:45:00,66.9,3.6,29.63,SW,225,11.0,-999.0,8,0.00,,,0.00,Wunderground v.1.15,2013-03-24 19:45:00,
2013-03-24 12:50:00,66.8,3.5,29.63,SW,225,6.0,-999.0,8,0.00,,,0.00,Wunderground v.1.15,2013-03-24 19:50:00,
2013-03-24 12:55:00,67.6,4.1,29.63,West,270,7.0,-999.0,8,0.00,,,0.00,Wunderground v.1.15,2013-03-24 19:55:00,
2013-03-24 13:00:00,67.4,1.1,29.63,West,270,7.0,-999.0,7,0.00,,,0.00,Wunderground v.1.15,2013-03-24 20:00:00,
2013-03-24 13:05:00,67.2,0.9,29.63,SSW,203,5.0,-999.0,7,0.00,,,0.00,Wunderground v.1.15,2013-03-24 20:05:00,
2013-03-24 13:10:00,67.5,1.1,29.63,WSW,248,5.0,-999.0,7,0.00,,,0.00,Wunderground v.1.15,2013-03-24 20:10:00,
2013-03-24 13:15:00,67.8,1.4,29.63,WSW,248,6.0,-999.0,7,0.00,,,0.00,Wunderground v.1.15,2013-03-24 20:15:00,
2013-03-24 13:20:00,68.1,1.6,29.63,West,270,6.0,-999.0,7,0.00,,,0.00,Wunderground v.1.15,2013-03-24 20:20:00,
2013-03-24 13:25:00,68.4,1.8,29.63,SW,225,11.0,-999.0,7,0.00,,,0.00,Wunderground v.1.15,2013-03-24 20:25:00,
2013-03-24 13:30:00,68.2,1.7,29.63,WSW,248,12.0,-999.0,7,0.00,,,0.00,Wunderground v.1.15,2013-03-24 20:30:00,
2013-03-24 13:35:00,67.3,1.0,29.63,WSW,248,8.0,-999.0,7,0.00,,,0.00,Wunderground v.1.15,2013-03-24 20:35:00,
2013-03-24 13:40:00,67.1,0.8,29.63,WSW,248,6.0,-999.0,7,0.00,,,0.00,Wunderground v.1.15,2013-03-24 20:40:00,
2013-03-24 13:45:00,67.5,1.1,29.63,WSW,248,7.0,-999.0,7,0.00,,,0.00,Wunderground v.1.15,2013-03-24 20:45:00,
2013-03-24 13:50:00,68.1,1.6,29.63,WSW,248,10.0,-999.0,7,0.00,,,0.00,Wunderground v.1.15,2013-03-24 20:50:00,
2013-03-24 13:55:00,67.8,1.4,29.63,WSW,248,13.0,-999.0,7,0.00,,,0.00,Wunderground v.1.15,2013-03-24 20:55:00,
2013-03-24 14:00:00,67.8,1.4,29.63,WSW,248,11.0,-999.0,7,0.00,,,0.00,Wunderground v.1.15,2013-03-24 21:00:00,
2013-03-24 14:05:00,68.5,1.9,29.63,SW,225,11.0,-999.0,7,0.00,,,0.00,Wunderground v.1.15,2013-03-24 21:05:00,
2013-03-24 14:10:00,68.5,1.9,29.63,SW,225,5.0,-999.0,7,0.00,,,0.00,Wunderground v.1.15,2013-03-24 21:10:00,
2013-03-24 14:15:00,67.9,4.3,29.63,West,270,5.0,-999.0,8,0.00,,,0.00,Wunderground v.1.15,2013-03-24 21:15:00,
2013-03-24 14:20:00,68.8,5.0,29.63,WSW,248,9.0,-999.0,8,0.00,,,0.00,Wunderground v.1.15,2013-03-24 21:20:00,
2013-03-24 14:25:00,69.2,2.4,29.63,SW,225,13.0,-999.0,7,0.00,,,0.00,Wunderground v.1.15,2013-03-24 21:25:00,
2013-03-24 14:30:00,69.0,5.1,29.63,SW,225,16.0,-999.0,8,0.00,,,0.00,Wunderground v.1.15,2013-03-24 21:30:00,
2013-03-24 14:35:00,68.6,4.8,29.63,SW,225,13.0,-999.0,8,0.00,,,0.00,Wunderground v.1.15,2013-03-24 21:35:00,
2013-03-24 14:40:00,68.2,4.5,29.63,West,270,10.0,-999.0,8,0.00,,,0.00,Wunderground v.1.15,2013-03-24 21:40:00,
2013-03-24 14:45:00,68.0,4.4,29.63,West,270,9.0,-999.0,8,0.00,,,0.00,Wunderground v.1.15,2013-03-24 21:45:00,
2013-03-24 14:50:00,69.4,5.4,29.63,SW,225,19.0,-999.0,8,0.00,,,0.00,Wunderground v.1.15,2013-03-24 21:50:00,
2013-03-24 14:55:00,69.1,5.2,29.63,SW,225,15.0,-999.0,8,0.00,,,0.00,Wunderground v.1.15,2013-03-24 21:55:00,
2013-03-24 15:00:00,68.4,4.7,29.63,WSW,248,8.0,-999.0,8,0.00,,,0.00,Wunderground v.1.15,2013-03-24 22:00:00,
2013-03-24 15:05:00,69.2,2.4,29.63,SW,225,14.0,-999.0,7,0.00,,,0.00,Wunderground v.1.15,2013-03-24 22:05:00,
2013-03-24 15:10:00,69.2,2.4,29.63,SW,225,12.0,-999.0,7,0.00,,,0.00,Wunderground v.1.15,2013-03-24 22:10:00,
2013-03-24 15:15:00,69.1,2.3,29.63,SW,225,18.0,-999.0,7,0.00,,,0.00,Wunderground v.1.15,2013-03-24 22:15:00,
2013-03-24 15:20:00,68.9,2.2,29.63,SW,225,14.0,-999.0,7,0.00,,,0.00,Wunderground v.1.15,2013-03-24 22:20:00,
2013-03-24 15:25:00,68.8,2.1,29.63,SSW,203,13.0,-999.0,7,0.00,,,0.00,Wunderground v.1.15,2013-03-24 22:25:00,
2013-03-24 15:30:00,69.5,2.6,29.63,SW,225,12.0,-999.0,7,0.00,,,0.00,Wunderground v.1.15,2013-03-24 22:30:00,
2013-03-24 15:35:00,69.1,2.3,29.63,WSW,248,14.0,-999.0,7,0.00,,,0.00,Wunderground v.1.15,2013-03-24 22:35:00,
2013-03-24 15:40:00,68.4,1.8,29.63,SSW,203,14.0,-999.0,7,0.00,,,0.00,Wunderground v.1.15,2013-03-24 22:40:00,
2013-03-24 15:45:00,68.7,2.0,29.63,SW,225,13.0,-999.0,7,0.00,,,0.00,Wunderground v.1.15,2013-03-24 22:45:00,
2013-03-24 15:50:00,68.8,2.1,29.63,SSW,203,14.0,-999.0,7,0.00,,,0.00,Wunderground v.1.15,2013-03-24 22:50:00,
2013-03-24 15:55:00,68.1,1.6,29.63,SSW,203,9.0,-999.0,7,0.00,,,0.00,Wunderground v.1.15,2013-03-24 22:55:00,
2013-03-24 16:00:00,68.6,4.8,29.63,SW,225,15.0,-999.0,8,0.00,,,0.00,Wunderground v.1.15,2013-03-24 23:00:00,
2013-03-24 16:05:00,68.5,1.9,29.63,SW,225,17.0,-999.0,7,0.00,,,0.00,Wunderground v.1.15,2013-03-24 23:05:00,
2013-03-24 16:10:00,68.2,4.5,29.63,SW,225,16.0,-999.0,8,0.00,,,0.00,Wunderground v.1.15,2013-03-24 23:10:00,
2013-03-24 16:15:00,68.1,4.5,29.63,SSW,203,15.0,-999.0,8,0.00,,,0.00,Wunderground v.1.15,2013-03-24 23:15:00,
2013-03-24 16:20:00,68.0,4.4,29.63,SW,225,17.0,-999.0,8,0.00,,,0.00,Wunderground v.1.15,2013-03-24 23:20:00,
2013-03-24 16:25:00,67.8,4.2,29.63,SSW,203,13.0,-999.0,8,0.00,,,0.00,Wunderground v.1.15,2013-03-24 23:25:00,
2013-03-24 16:30:00,68.1,4.5,29.63,SW,225,15.0,-999.0,8,0.00,,,0.00,Wunderground v.1.15,2013-03-24 23:30:00,
2013-03-24 16:35:00,68.1,4.5,29.63,SW,225,16.0,-999.0,8,0.00,,,0.00,Wunderground v.1.15,2013-03-24 23:35:00,
2013-03-24 16:40:00,67.8,4.2,29.63,SW,225,15.0,-999.0,8,0.00,,,0.00,Wunderground v.1.15,2013-03-24 23:40:00,
2013-03-24 16:45:00,67.6,4.1,29.63,SW,225,15.0,-999.0,8,0.00,,,0.00,Wunderground v.1.15,2013-03-24 23:45:00,
2013-03-24 16:50:00,67.7,4.2,29.63,SW,225,14.0,-999.0,8,0.00,,,0.00,Wunderground v.1.15,2013-03-24 23:50:00,
2013-03-24 16:55:00,67.6,4.1,29.63,SW,225,14.0,-999.0,8,0.00,,,0.00,Wunderground v.1.15,2013-03-24 23:55:00,
2013-03-24 17:00:00,67.2,3.8,29.63,SW,225,13.0,-999.0,8,0.00,,,0.00,Wunderground v.1.15,2013-03-25 00:00:00,
2013-03-24 17:05:00,66.7,6.0,29.63,SSW,203,14.0,-999.0,9,0.00,,,0.00,Wunderground v.1.15,2013-03-25 00:05:00,
2013-03-24 17:10:00,66.6,3.3,29.63,SSW,203,14.0,-999.0,8,0.00,,,0.00,Wunderground v.1.15,2013-03-25 00:10:00,
2013-03-24 17:15:00,66.6,3.3,29.63,SW,225,14.0,-999.0,8,0.00,,,0.00,Wunderground v.1.15,2013-03-25 00:15:00,
2013-03-24 17:20:00,66.5,3.3,29.63,SW,225,14.0,-999.0,8,0.00,,,0.00,Wunderground v.1.15,2013-03-25 00:20:00,
2013-03-24 17:25:00,66.3,3.1,29.63,SW,225,15.0,-999.0,8,0.00,,,0.00,Wunderground v.1.15,2013-03-25 00:25:00,
2013-03-24 17:30:00,66.1,3.0,29.63,SW,225,14.0,-999.0,8,0.00,,,0.00,Wunderground v.1.15,2013-03-25 00:30:00,
2013-03-24 17:35:00,65.6,2.6,29.63,SW,225,16.0,-999.0,8,0.00,,,0.00,Wunderground v.1.15,2013-03-25 00:35:00,
2013-03-24 17:40:00,65.4,2.4,29.63,SW,225,15.0,-999.0,8,0.00,,,0.00,Wunderground v.1.15,2013-03-25 00:40:00,
2013-03-24 17:45:00,65.1,2.2,29.63,SW,225,14.0,-999.0,8,0.00,,,0.00,Wunderground v.1.15,2013-03-25 00:45:00,
2013-03-24 17:50:00,64.9,2.1,29.63,SW,225,11.0,-999.0,8,0.00,,,0.00,Wunderground v.1.15,2013-03-25 00:50:00,
2013-03-24 17:55:00,64.6,4.4,29.63,SW,225,15.0,-999.0,9,0.00,,,0.00,Wunderground v.1.15,2013-03-25 00:55:00,
2013-03-24 18:00:00,64.3,4.2,29.63,SW,225,12.0,-999.0,9,0.00,,,0.00,Wunderground v.1.15,2013-03-25 01:00:00,
2013-03-24 18:05:00,63.8,3.8,29.63,SW,225,12.0,-999.0,9,0.00,,,0.00,Wunderground v.1.15,2013-03-25 01:05:00,
2013-03-24 18:10:00,63.4,3.5,29.63,SW,225,10.0,-999.0,9,0.00,,,0.00,Wunderground v.1.15,2013-03-25 01:10:00,
2013-03-24 18:15:00,62.7,2.9,29.63,SW,225,11.0,-999.0,9,0.00,,,0.00,Wunderground v.1.15,2013-03-25 01:15:00,
2013-03-24 18:20:00,62.1,2.5,29.63,SW,225,12.0,-999.0,9,0.00,,,0.00,Wunderground v.1.15,2013-03-25 01:20:00,
2013-03-24 18:25:00,61.3,4.2,29.63,SW,225,9.0,-999.0,10,0.00,,,0.00,Wunderground v.1.15,2013-03-25 01:25:00,
2013-03-24 18:30:00,60.9,3.9,29.63,SW,225,8.0,-999.0,10,0.00,,,0.00,Wunderground v.1.15,2013-03-25 01:30:00,
2013-03-24 18:35:00,60.5,3.5,29.63,SW,225,9.0,-999.0,10,0.00,,,0.00,Wunderground v.1.15,2013-03-25 01:35:00,
2013-03-24 18:40:00,59.9,3.1,29.63,SW,225,7.0,-999.0,10,0.00,,,0.00,Wunderground v.1.15,2013-03-25 01:40:00,
2013-03-24 18:45:00,59.1,4.5,29.63,SW,225,7.0,-999.0,11,0.00,,,0.00,Wunderground v.1.15,2013-03-25 01:45:00,
2013-03-24 18:50:00,58.7,4.2,29.63,SW,225,7.0,-999.0,11,0.00,,,0.00,Wunderground v.1.15,2013-03-25 01:50:00,
2013-03-24 18:55:00,58.1,3.8,29.63,SW,225,7.0,-999.0,11,0.00,,,0.00,Wunderground v.1.15,2013-03-25 01:55:00,
2013-03-24 19:00:00,58.0,3.7,29.63,SW,225,7.0,-999.0,11,0.00,,,0.00,Wunderground v.1.15,2013-03-25 02:00:00,
2013-03-24 19:05:00,57.9,3.6,29.63,SW,225,7.0,-999.0,11,0.00,,,0.00,Wunderground v.1.15,2013-03-25 02:05:00,
2013-03-24 19:10:00,58.0,3.7,29.63,SW,225,8.0,-999.0,11,0.00,,,0.00,Wunderground v.1.15,2013-03-25 02:10:00,
2013-03-24 19:15:00,58.1,3.8,29.63,SW,225,8.0,-999.0,11,0.00,,,0.00,Wunderground v.1.15,2013-03-25 02:15:00,
2013-03-24 19:20:00,57.6,3.4,29.63,SW,225,7.0,-999.0,11,0.00,,,0.00,Wunderground v.1.15,2013-03-25 02:20:00,
2013-03-24 19:25:00,56.6,4.5,29.63,SW,225,5.0,-999.0,12,0.00,,,0.00,Wunderground v.1.15,2013-03-25 02:25:00,
2013-03-24 19:30:00,55.4,3.5,29.63,SW,225,6.0,-999.0,12,0.00,,,0.00,Wunderground v.1.15,2013-03-25 02:30:00,
2013-03-24 19:35:00,54.6,4.6,29.63,SW,225,6.0,-999.0,13,0.00,,,0.00,Wunderground v.1.15,2013-03-25 02:35:00,
2013-03-24 19:40:00,54.2,4.3,29.63,SW,225,6.0,-999.0,13,0.00,,,0.00,Wunderground v.1.15,2013-03-25 02:40:00,
2013-03-24 19:45:00,53.6,3.8,29.63,SW,225,6.0,-999.0,13,0.00,,,0.00,Wunderground v.1.15,2013-03-25 02:45:00,
2013-03-24 19:50:00,52.6,3.1,29.63,SW,225,4.0,-999.0,13,0.00,,,0.00,Wunderground v.1.15,2013-03-25 02:50:00,
2013-03-24 19:55:00,52.0,4.2,29.63,SW,225,5.0,-999.0,14,0.00,,,0.00,Wunderground v.1.15,2013-03-25 02:55:00,
2013-03-24 20:00:00,51.7,3.9,29.63,SW,225,5.0,-999.0,14,0.00,,,0.00,Wunderground v.1.15,2013-03-25 03:00:00,
2013-03-24 20:05:00,51.2,5.0,29.63,SW,225,5.0,-999.0,15,0.00,,,0.00,Wunderground v.1.15,2013-03-25 03:05:00,
2013-03-24 20:10:00,51.3,5.1,29.63,SW,225,5.0,-999.0,15,0.00,,,0.00,Wunderground v.1.15,2013-03-25 03:10:00,
2013-03-24 20:15:00,51.4,5.2,29.63,SW,225,5.0,-999.0,15,0.00,,,0.00,Wunderground v.1.15,2013-03-25 03:15:00,
2013-03-24 20:20:00,51.2,5.0,29.63,SW,225,5.0,-999.0,15,0.00,,,0.00,Wunderground v.1.15,2013-03-25 03:20:00,
2013-03-24 20:25:00,50.9,4.8,29.63,SW,225,6.0,-999.0,15,0.00,,,0.00,Wunderground v.1.15,2013-03-25 03:25:00,
2013-03-24 20:30:00,50.8,4.7,29.63,SW,225,4.0,-999.0,15,0.00,,,0.00,Wunderground v.1.15,2013-03-25 03:30:00,
2013-03-24 20:35:00,50.5,4.5,29.63,SW,225,3.0,-999.0,15,0.00,,,0.00,Wunderground v.1.15,2013-03-25 03:35:00,
2013-03-24 20:40:00,50.3,4.3,29.63,SW,225,3.0,-999.0,15,0.00,,,0.00,Wunderground v.1.15,2013-03-25 03:40:00,
2013-03-24 20:45:00,50.2,4.2,29.63,SW,225,2.0,-999.0,15,0.00,,,0.00,Wunderground v.1.15,2013-03-25 03:45:00,
2013-03-24 20:50:00,50.0,4.1,29.63,WSW,248,1.0,-999.0,15,0.00,,,0.00,Wunderground v.1.15,2013-03-25 03:50:00,
2013-03-24 20:55:00,50.1,4.2,29.63,WSW,248,1.0,-999.0,15,0.00,,,0.00,Wunderground v.1.15,2013-03-25 03:55:00,
2013-03-24 21:00:00,50.0,4.1,29.63,N/A,-737280,0.0,-999.0,15,0.00,,,0.00,Wunderground v.1.15,2013-03-25 04:00:00,
2013-03-24 21:05:00,49.7,5.2,29.63,N/A,-737280,0.0,-999.0,16,0.00,,,0.00,Wunderground v.1.15,2013-03-25 04:05:00,
2013-03-24 21:10:00,49.4,5.0,29.63,N/A,-737280,0.0,-999.0,16,0.00,,,0.00,Wunderground v.1.15,2013-03-25 04:10:00,
2013-03-24 21:15:00,49.3,4.9,29.63,N/A,-737280,0.0,-999.0,16,0.00,,,0.00,Wunderground v.1.15,2013-03-25 04:15:00,
2013-03-24 21:20:00,49.6,3.8,29.63,West,270,0.0,-999.0,15,0.00,,,0.00,Wunderground v.1.15,2013-03-25 04:20:00,
2013-03-24 21:25:00,50.3,4.3,29.63,West,270,3.0,-999.0,15,0.00,,,0.00,Wunderground v.1.15,2013-03-25 04:25:00,
2013-03-24 21:30:00,50.7,3.1,29.63,WNW,293,2.0,-999.0,14,0.00,,,0.00,Wunderground v.1.15,2013-03-25 04:30:00,
2013-03-24 21:35:00,51.2,3.5,29.63,West,270,3.0,-999.0,14,0.00,,,0.00,Wunderground v.1.15,2013-03-25 04:35:00,
2013-03-24 21:40:00,51.2,3.5,29.63,West,270,3.0,-999.0,14,0.00,,,0.00,Wunderground v.1.15,2013-03-25 04:40:00,
2013-03-24 21:45:00,51.3,3.6,29.63,West,270,4.0,-999.0,14,0.00,,,0.00,Wunderground v.1.15,2013-03-25 04:45:00,
2013-03-24 21:50:00,51.2,3.5,29.63,WNW,293,2.0,-999.0,14,0.00,,,0.00,Wunderground v.1.15,2013-03-25 04:50:00,
2013-03-24 21:55:00,50.7,7.4,29.63,WNW,293,3.0,-999.0,17,0.00,,,0.00,Wunderground v.1.15,2013-03-25 04:55:00,
2013-03-24 22:00:00,49.7,11.3,29.63,WNW,293,3.0,-999.0,21,0.00,,,0.00,Wunderground v.1.15,2013-03-25 05:00:00,
2013-03-24 22:05:00,49.0,8.5,29.63,WNW,293,4.0,-999.0,19,0.00,,,0.00,Wunderground v.1.15,2013-03-25 05:05:00,
2013-03-24 22:10:00,48.0,7.6,29.63,WNW,293,0.0,-999.0,19,0.00,,,0.00,Wunderground v.1.15,2013-03-25 05:10:00,
2013-03-24 22:15:00,48.1,5.3,29.63,WNW,293,1.0,-999.0,17,0.00,,,0.00,Wunderground v.1.15,2013-03-25 05:15:00,
2013-03-24 22:20:00,49.3,3.5,29.63,West,270,4.0,-999.0,15,0.00,,,0.00,Wunderground v.1.15,2013-03-25 05:20:00,
2013-03-24 22:25:00,49.9,6.7,29.63,West,270,1.0,-999.0,17,0.00,,,0.00,Wunderground v.1.15,2013-03-25 05:25:00,
2013-03-24 22:30:00,49.3,8.7,29.63,N/A,-737280,0.0,-999.0,19,0.00,,,0.00,Wunderground v.1.15,2013-03-25 05:30:00,
2013-03-24 22:35:00,48.8,5.8,29.63,N/A,-737280,0.0,-999.0,17,0.00,,,0.00,Wunderground v.1.15,2013-03-25 05:35:00,
2013-03-24 22:40:00,48.4,5.5,29.63,West,270,0.0,-999.0,17,0.00,,,0.00,Wunderground v.1.15,2013-03-25 05:40:00,
2013-03-24 22:45:00,48.6,4.3,29.63,West,270,1.0,-999.0,16,0.00,,,0.00,Wunderground v.1.15,2013-03-25 05:45:00,
2013-03-24 22:50:00,48.3,4.1,29.63,South,180,2.0,-999.0,16,0.00,,,0.00,Wunderground v.1.15,2013-03-25 05:50:00,
2013-03-24 22:55:00,49.4,3.6,29.63,SW,225,4.0,-999.0,15,0.00,,,0.00,Wunderground v.1.15,2013-03-25 05:55:00,
2013-03-24 23:00:00,50.3,4.3,29.63,SSW,203,4.0,-999.0,15,0.00,,,0.00,Wunderground v.1.15,2013-03-25 06:00:00,
2013-03-24 23:05:00,50.1,4.2,29.63,SSW,203,4.0,-999.0,15,0.00,,,0.00,Wunderground v.1.15,2013-03-25 06:05:00,
2013-03-24 23:10:00,49.5,3.7,29.63,SSW,203,3.0,-999.0,15,0.00,,,0.00,Wunderground v.1.15,2013-03-25 06:10:00,
2013-03-24 23:15:00,49.4,5.0,29.63,SSW,203,3.0,-999.0,16,0.00,,,0.00,Wunderground v.1.15,2013-03-25 06:15:00,
2013-03-24 23:20:00,49.2,4.8,29.63,SSW,203,1.0,-999.0,16,0.00,,,0.00,Wunderground v.1.15,2013-03-25 06:20:00,
2013-03-24 23:25:00,49.1,4.8,29.63,SSW,203,0.0,-999.0,16,0.00,,,0.00,Wunderground v.1.15,2013-03-25 06:25:00,
2013-03-24 23:30:00,48.7,4.4,29.63,N/A,-737280,0.0,-999.0,16,0.00,,,0.00,Wunderground v.1.15,2013-03-25 06:30:00,
2013-03-24 23:35:00,47.9,5.1,29.63,N/A,-737280,0.0,-999.0,17,0.00,,,0.00,Wunderground v.1.15,2013-03-25 06:35:00,
2013-03-24 23:40:00,46.9,11.0,29.63,N/A,-737280,0.0,-999.0,23,0.00,,,0.00,Wunderground v.1.15,2013-03-25 06:40:00,
2013-03-24 23:45:00,46.7,6.5,29.63,N/A,-737280,0.0,-999.0,19,0.00,,,0.00,Wunderground v.1.15,2013-03-25 06:45:00,
2013-03-24 23:50:00,46.9,5.5,29.63,N/A,-737280,0.0,-999.0,18,0.00,,,0.00,Wunderground v.1.15,2013-03-25 06:50:00,
2013-03-24 23:55:00,47.0,5.6,29.63,N/A,-737280,0.0,-999.0,18,0.00,,,0.00,Wunderground v.1.15,2013-03-25 06:55:00,